• In Germany
  • List of Countries
  • For 7 days
  • Water Temperature
  • Satellite Maps
  • Weather Map
  • Weather Widgets
  • user-avatar
    Login

    Hourly Weather Krasnopartizanskiy

    Today, 25 September, Tuesday

    Time Temperature Precipitation Wind Pressure Humidity
    00:00 +19°C° 0 mm 4 mps 757 mmHg 54%
    01:00 +18°C° 0 mm 4 mps 757 mmHg 57%
    02:00 +18°C° 0 mm 4 mps 756 mmHg 60%
    03:00 +17°C° 0 mm 3 mps 756 mmHg 67%
    04:00 +18°C° 0 mm 3 mps 755 mmHg 68%
    05:00 +18°C° 0 mm 4 mps 755 mmHg 68%
    06:00 +18°C° 0 mm 4 mps 755 mmHg 69%
    07:00 +20°C° 0 mm 5 mps 755 mmHg 64%
    08:00 +21°C° 0 mm 5 mps 755 mmHg 59%
    09:00 +24°C° 0 mm 6 mps 755 mmHg 53%
    10:00 +26°C° 0 mm 6 mps 755 mmHg 48%
    11:00 +28°C° 0 mm 5 mps 754 mmHg 43%
    12:00 +30°C° 0 mm 5 mps 754 mmHg 38%
    13:00 +30°C° 0 mm 5 mps 754 mmHg 37%
    14:00 +32°C° 0 mm 5 mps 755 mmHg 36%
    15:00 +30°C° 0 mm 6 mps 755 mmHg 41%
    16:00 +27°C° 0.2 mm 6 mps 756 mmHg 50%
    17:00 +23°C° 0.2 mm 7 mps 756 mmHg 58%
    18:00 +20°C° 0.2 mm 7 mps 757 mmHg 67%
    19:00 +19°C° 0.6 mm 6 mps 758 mmHg 67%
    20:00 +17°C° 0.6 mm 6 mps 758 mmHg 67%
    21:00 +16°C° 0.6 mm 5 mps 759 mmHg 68%
    22:00 +15°C° 0.5 mm 4 mps 760 mmHg 68%
    23:00 +15°C° 0.5 mm 4 mps 760 mmHg 67%

    Tomorrow, 26 September, Wednesday

    Time Temperature Precipitation Wind Pressure Humidity
    00:00 +14°C° 0.5 mm 4 mps 761 mmHg 67%
    01:00 +14°C° 0.1 mm 4 mps 761 mmHg 68%
    02:00 +14°C° 0.1 mm 4 mps 761 mmHg 68%
    03:00 +13°C° 0.1 mm 4 mps 761 mmHg 69%
    04:00 +13°C° 0.1 mm 4 mps 762 mmHg 70%
    05:00 +13°C° 0.1 mm 3 mps 762 mmHg 72%
    06:00 +13°C° 0.1 mm 3 mps 762 mmHg 74%
    07:00 +13°C° 0.3 mm 3 mps 763 mmHg 74%
    08:00 +12°C° 0.3 mm 3 mps 763 mmHg 75%
    09:00 +13°C° 0.3 mm 2 mps 763 mmHg 76%
    10:00 +15°C° 0.2 mm 2 mps 764 mmHg 70%
    11:00 +16°C° 0.2 mm 3 mps 764 mmHg 64%
    12:00 +17°C° 0.2 mm 3 mps 764 mmHg 57%
    13:00 +17°C° 0 mm 3 mps 764 mmHg 52%
    14:00 +18°C° 0 mm 3 mps 764 mmHg 46%
    15:00 +19°C° 0 mm 3 mps 764 mmHg 40%
    16:00 +18°C° 0 mm 3 mps 764 mmHg 42%
    17:00 +18°C° 0 mm 2 mps 764 mmHg 44%
    18:00 +17°C° 0 mm 2 mps 765 mmHg 46%
    19:00 +16°C° 0 mm 2 mps 765 mmHg 49%
    20:00 +16°C° 0 mm 2 mps 765 mmHg 52%
    21:00 +15°C° 0 mm 2 mps 766 mmHg 55%
    22:00 +15°C° 0 mm 2 mps 766 mmHg 56%
    23:00 +14°C° 0 mm 2 mps 766 mmHg 57%

    Day after tomorrow, 27 September, Thursday

    Time Temperature Precipitation Wind Pressure Humidity
    00:00 +14°C° 0 mm 2 mps 766 mmHg 58%
    01:00 +13°C° 0 mm 2 mps 766 mmHg 60%
    02:00 +13°C° 0 mm 2 mps 766 mmHg 62%
    03:00 +12°C° 0 mm 2 mps 767 mmHg 64%
    04:00 +12°C° 0 mm 2 mps 767 mmHg 66%
    05:00 +10°C° 0 mm 2 mps 767 mmHg 68%
    06:00 +11°C° 0 mm 1 mps 767 mmHg 70%
    07:00 +13°C° 0 mm 1 mps 767 mmHg 64%
    08:00 +14°C° 0 mm 1 mps 767 mmHg 58%
    09:00 +15°C° 0 mm 1 mps 767 mmHg 52%
    10:00 +17°C° 0 mm 2 mps 767 mmHg 47%
    11:00 +18°C° 0 mm 2 mps 766 mmHg 41%
    12:00 +19°C° 0 mm 2 mps 766 mmHg 35%
    13:00 +20°C° 0 mm 3 mps 765 mmHg 34%
    14:00 +20°C° 0 mm 4 mps 765 mmHg 33%
    15:00 +20°C° 0 mm 4 mps 765 mmHg 32%
    16:00 +20°C° 0 mm 4 mps 764 mmHg 34%
    17:00 +19°C° 0 mm 3 mps 764 mmHg 35%
    18:00 +18°C° 0 mm 3 mps 764 mmHg 37%
    19:00 +17°C° 0 mm 3 mps 764 mmHg 37%
    20:00 +16°C° 0 mm 3 mps 765 mmHg 37%
    21:00 +14°C° 0 mm 3 mps 765 mmHg 37%
    22:00 +13°C° 0 mm 3 mps 765 mmHg 38%
    23:00 +13°C° 0 mm 3 mps 765 mmHg 39%

    28 September, Friday

    Time Temperature Precipitation Wind Pressure Humidity
    00:00 +12°C° 0 mm 3 mps 765 mmHg 40%
    01:00 +13°C° 0 mm 2 mps 765 mmHg 42%
    02:00 +12°C° 0 mm 2 mps 765 mmHg 44%
    03:00 +12°C° 0 mm 2 mps 765 mmHg 45%
    04:00 +10°C° 0 mm 2 mps 765 mmHg 47%
    05:00 +10°C° 0 mm 2 mps 765 mmHg 49%
    06:00 +10°C° 0 mm 2 mps 765 mmHg 51%
    07:00 +12°C° 0 mm 2 mps 765 mmHg 47%
    08:00 +13°C° 0 mm 3 mps 765 mmHg 43%
    09:00 +14°C° 0 mm 3 mps 765 mmHg 39%
    10:00 +17°C° 0 mm 3 mps 764 mmHg 35%
    11:00 +18°C° 0 mm 3 mps 764 mmHg 31%
    12:00 +20°C° 0 mm 3 mps 764 mmHg 27%
    13:00 +21°C° 0 mm 3 mps 763 mmHg 27%
    14:00 +21°C° 0 mm 3 mps 763 mmHg 26%
    15:00 +22°C° 0 mm 3 mps 762 mmHg 25%
    16:00 +21°C° 0 mm 2 mps 762 mmHg 29%
    17:00 +20°C° 0 mm 2 mps 762 mmHg 32%
    18:00 +20°C° 0 mm 1 mps 761 mmHg 35%
    19:00 +19°C° 0 mm 1 mps 761 mmHg 37%
    20:00 +19°C° 0 mm 1 mps 761 mmHg 38%
    21:00 +17°C° 0 mm 2 mps 761 mmHg 40%
    22:00 +17°C° 0 mm 2 mps 761 mmHg 43%
    23:00 +17°C° 0 mm 2 mps 761 mmHg 46%

    29 September, Saturday

    Time Temperature Precipitation Wind Pressure Humidity
    00:00 +17°C° 0 mm 2 mps 761 mmHg 49%
    01:00 +16°C° 0 mm 2 mps 761 mmHg 54%
    02:00 +16°C° 0 mm 2 mps 761 mmHg 59%
    03:00 +16°C° 0 mm 2 mps 760 mmHg 64%
    04:00 +15°C° 0 mm 2 mps 760 mmHg 70%
    05:00 +15°C° 0 mm 2 mps 760 mmHg 75%
    06:00 +15°C° 0 mm 2 mps 760 mmHg 80%
    07:00 +17°C° 0 mm 2 mps 760 mmHg 75%
    08:00 +19°C° 0 mm 3 mps 760 mmHg 70%
    09:00 +20°C° 0 mm 4 mps 760 mmHg 65%
    10:00 +22°C° 0 mm 4 mps 760 mmHg 59%
    11:00 +23°C° 0 mm 4 mps 760 mmHg 54%
    12:00 +25°C° 0 mm 4 mps 760 mmHg 49%
    13:00 +26°C° 0 mm 4 mps 759 mmHg 47%
    14:00 +27°C° 0 mm 4 mps 759 mmHg 45%
    15:00 +27°C° 0 mm 4 mps 759 mmHg 43%
    16:00 +26°C° 0 mm 3 mps 758 mmHg 46%
    17:00 +25°C° 0 mm 3 mps 758 mmHg 48%
    18:00 +24°C° 0 mm 2 mps 758 mmHg 51%
    19:00 +24°C° 0 mm 3 mps 759 mmHg 52%
    20:00 +22°C° 0 mm 3 mps 759 mmHg 54%
    21:00 +21°C° 0 mm 3 mps 759 mmHg 55%
    22:00 +21°C° 0 mm 3 mps 759 mmHg 56%
    23:00 +21°C° 0 mm 3 mps 759 mmHg 56%

    30 September, Sunday

    Time Temperature Precipitation Wind Pressure Humidity
    00:00 +21°C° 0 mm 3 mps 759 mmHg 57%
    01:00 +20°C° 0 mm 3 mps 759 mmHg 58%
    02:00 +20°C° 0 mm 3 mps 759 mmHg 58%
    03:00 +19°C° 0 mm 2 mps 759 mmHg 59%
    04:00 +19°C° 0 mm 2 mps 759 mmHg 59%
    05:00 +19°C° 0 mm 2 mps 759 mmHg 59%
    06:00 +19°C° 0 mm 2 mps 760 mmHg 59%
    07:00 +20°C° 0 mm 3 mps 760 mmHg 53%
    08:00 +21°C° 0 mm 3 mps 760 mmHg 47%
    09:00 +24°C° 0 mm 3 mps 760 mmHg 42%
    10:00 +25°C° 0 mm 4 mps 760 mmHg 38%
    11:00 +26°C° 0 mm 4 mps 760 mmHg 34%
    12:00 +27°C° 0 mm 4 mps 760 mmHg 31%
    13:00 +28°C° 0 mm 4 mps 760 mmHg 30%
    14:00 +28°C° 0 mm 5 mps 760 mmHg 29%
    15:00 +28°C° 0 mm 5 mps 760 mmHg 28%
    16:00 +27°C° 0 mm 4 mps 760 mmHg 30%
    17:00 +26°C° 0 mm 4 mps 760 mmHg 32%
    18:00 +23°C° 0 mm 4 mps 760 mmHg 34%
    19:00 +23°C° 0 mm 4 mps 760 mmHg 36%
    20:00 +22°C° 0 mm 4 mps 761 mmHg 37%
    21:00 +21°C° 0 mm 4 mps 761 mmHg 39%
    22:00 +21°C° 0 mm 4 mps 761 mmHg 41%
    23:00 +20°C° 0 mm 5 mps 761 mmHg 43%
    Show more